Year,Month,Day,Hour,Minute,Value (Times are PST for temperature in C)
2017,07,08,00,00,18.40
2017,07,08,00,01,18.30
2017,07,08,00,02,18.30
2017,07,08,00,03,18.40
2017,07,08,00,04,18.40
2017,07,08,00,05,18.40
2017,07,08,00,06,18.30
2017,07,08,00,07,18.30
2017,07,08,00,08,18.30
2017,07,08,00,09,18.30
2017,07,08,00,10,18.30
2017,07,08,00,11,18.20
2017,07,08,00,12,18.20
2017,07,08,00,13,18.20
2017,07,08,00,14,18.20
2017,07,08,00,15,18.20
2017,07,08,00,16,18.20
2017,07,08,00,17,18.20
2017,07,08,00,18,18.20
2017,07,08,00,19,18.20
2017,07,08,00,20,18.10
2017,07,08,00,21,18.10
2017,07,08,00,22,18.10
2017,07,08,00,23,18.10
2017,07,08,00,24,18.10
2017,07,08,00,25,18.10
2017,07,08,00,26,18.00
2017,07,08,00,27,18.00
2017,07,08,00,28,18.00
2017,07,08,00,29,17.90
2017,07,08,00,30,17.90
2017,07,08,00,31,17.90
2017,07,08,00,32,17.90
2017,07,08,00,33,17.80
2017,07,08,00,34,17.80
2017,07,08,00,35,17.80
2017,07,08,00,36,17.80
2017,07,08,00,37,17.80
2017,07,08,00,38,17.80
2017,07,08,00,39,17.80
2017,07,08,00,40,17.80
2017,07,08,00,41,17.80
2017,07,08,00,42,17.80
2017,07,08,00,43,17.80
2017,07,08,00,44,17.80
2017,07,08,00,45,17.80
2017,07,08,00,46,17.80
2017,07,08,00,47,17.80
2017,07,08,00,48,17.80
2017,07,08,00,49,17.80
2017,07,08,00,50,17.80
2017,07,08,00,51,17.80
2017,07,08,00,52,17.80
2017,07,08,00,53,17.80
2017,07,08,00,54,17.80
2017,07,08,00,55,17.80
2017,07,08,00,56,17.90
2017,07,08,00,57,17.90
2017,07,08,00,58,17.90
2017,07,08,00,59,18.00
2017,07,08,01,00,18.00
2017,07,08,01,01,18.00
2017,07,08,01,02,18.00
2017,07,08,01,03,18.00
2017,07,08,01,04,17.90
2017,07,08,01,05,17.90
2017,07,08,01,06,17.90
2017,07,08,01,07,17.90
2017,07,08,01,08,17.80
2017,07,08,01,09,17.80
2017,07,08,01,10,17.80
2017,07,08,01,11,17.70
2017,07,08,01,12,17.70
2017,07,08,01,13,17.70
2017,07,08,01,14,17.60
2017,07,08,01,15,17.60
2017,07,08,01,16,17.60
2017,07,08,01,17,17.60
2017,07,08,01,18,17.50
2017,07,08,01,19,17.50
2017,07,08,01,20,17.50
2017,07,08,01,21,17.50
2017,07,08,01,22,17.40
2017,07,08,01,23,17.40
2017,07,08,01,24,17.40
2017,07,08,01,25,17.40
2017,07,08,01,26,17.40
2017,07,08,01,27,17.40
2017,07,08,01,28,17.40
2017,07,08,01,29,17.40
2017,07,08,01,30,17.40
2017,07,08,01,31,17.30
2017,07,08,01,32,17.30
2017,07,08,01,33,17.30
2017,07,08,01,34,17.30
2017,07,08,01,35,17.30
2017,07,08,01,36,17.30
2017,07,08,01,37,17.30
2017,07,08,01,38,17.30
2017,07,08,01,39,17.20
2017,07,08,01,40,17.20
2017,07,08,01,41,17.20
2017,07,08,01,42,17.10
2017,07,08,01,43,17.10
2017,07,08,01,44,17.00
2017,07,08,01,45,17.00
2017,07,08,01,46,16.90
2017,07,08,01,47,16.90
2017,07,08,01,48,16.90
2017,07,08,01,49,16.80
2017,07,08,01,50,16.80
2017,07,08,01,51,16.80
2017,07,08,01,52,16.70
2017,07,08,01,53,16.70
2017,07,08,01,54,16.70
2017,07,08,01,55,16.70
2017,07,08,01,56,16.60
2017,07,08,01,57,16.60
2017,07,08,01,58,16.60
2017,07,08,01,59,16.60
2017,07,08,02,00,16.50
2017,07,08,02,01,16.50
2017,07,08,02,02,16.50
2017,07,08,02,03,16.40
2017,07,08,02,04,16.40
2017,07,08,02,05,16.40
2017,07,08,02,06,16.40
2017,07,08,02,07,16.40
2017,07,08,02,08,16.40
2017,07,08,02,09,16.40
2017,07,08,02,10,16.40
2017,07,08,02,11,16.40
2017,07,08,02,12,16.40
2017,07,08,02,13,16.40
2017,07,08,02,14,16.40
2017,07,08,02,15,16.40
2017,07,08,02,16,16.40
2017,07,08,02,17,16.40
2017,07,08,02,18,16.40
2017,07,08,02,19,16.40
2017,07,08,02,20,16.40
2017,07,08,02,21,16.40
2017,07,08,02,22,16.40
2017,07,08,02,23,16.40
2017,07,08,02,24,16.50
2017,07,08,02,25,16.50
2017,07,08,02,26,16.60
2017,07,08,02,27,16.60
2017,07,08,02,28,16.60
2017,07,08,02,29,16.60
2017,07,08,02,30,16.60
2017,07,08,02,31,16.70
2017,07,08,02,32,16.80
2017,07,08,02,33,16.80
2017,07,08,02,34,16.90
2017,07,08,02,35,16.90
2017,07,08,02,36,17.00
2017,07,08,02,37,17.00
2017,07,08,02,38,17.10
2017,07,08,02,39,17.20
2017,07,08,02,40,17.30
2017,07,08,02,41,17.40
2017,07,08,02,42,17.50
2017,07,08,02,43,17.60
2017,07,08,02,44,17.60
2017,07,08,02,45,17.70
2017,07,08,02,46,17.80
2017,07,08,02,47,17.80
2017,07,08,02,48,17.80
2017,07,08,02,49,17.90
2017,07,08,02,50,17.90
2017,07,08,02,51,17.90
2017,07,08,02,52,17.90
2017,07,08,02,53,17.90
2017,07,08,02,54,17.90
2017,07,08,02,55,17.90
2017,07,08,02,56,17.90
2017,07,08,02,57,17.90
2017,07,08,02,58,17.90
2017,07,08,02,59,17.90
2017,07,08,03,00,17.90
2017,07,08,03,01,17.90
2017,07,08,03,02,17.90
2017,07,08,03,03,17.90
2017,07,08,03,04,17.90
2017,07,08,03,05,17.90
2017,07,08,03,06,17.90
2017,07,08,03,07,17.90
2017,07,08,03,08,17.90
2017,07,08,03,09,17.90
2017,07,08,03,10,17.90
2017,07,08,03,11,17.90
2017,07,08,03,12,17.90
2017,07,08,03,13,17.90
2017,07,08,03,14,17.80
2017,07,08,03,15,17.80
2017,07,08,03,16,17.80
2017,07,08,03,17,17.80
2017,07,08,03,18,17.80
2017,07,08,03,19,17.80
2017,07,08,03,20,17.80
2017,07,08,03,21,17.80
2017,07,08,03,22,17.80
2017,07,08,03,23,17.80
2017,07,08,03,24,17.80
2017,07,08,03,25,17.80
2017,07,08,03,26,17.70
2017,07,08,03,27,17.70
2017,07,08,03,28,17.70
2017,07,08,03,29,17.70
2017,07,08,03,30,17.70
2017,07,08,03,31,17.70
2017,07,08,03,32,17.70
2017,07,08,03,33,17.70
2017,07,08,03,34,17.80
2017,07,08,03,35,17.80
2017,07,08,03,36,17.70
2017,07,08,03,37,17.70
2017,07,08,03,38,17.70
2017,07,08,03,39,17.80
2017,07,08,03,40,17.80
2017,07,08,03,41,17.80
2017,07,08,03,42,17.80
2017,07,08,03,43,17.70
2017,07,08,03,44,17.70
2017,07,08,03,45,17.70
2017,07,08,03,46,17.70
2017,07,08,03,47,17.70
2017,07,08,03,48,17.70
2017,07,08,03,49,17.60
2017,07,08,03,50,17.60
2017,07,08,03,51,17.60
2017,07,08,03,52,17.50
2017,07,08,03,53,17.50
2017,07,08,03,54,17.50
2017,07,08,03,55,17.40
2017,07,08,03,56,17.40
2017,07,08,03,57,17.40
2017,07,08,03,58,17.40
2017,07,08,03,59,17.40
2017,07,08,04,00,17.40
2017,07,08,04,01,17.40
2017,07,08,04,02,17.40
2017,07,08,04,03,17.40
2017,07,08,04,04,17.40
2017,07,08,04,05,17.40
2017,07,08,04,06,17.40
2017,07,08,04,07,17.40
2017,07,08,04,08,17.40
2017,07,08,04,09,17.40
2017,07,08,04,10,17.40
2017,07,08,04,11,17.50
2017,07,08,04,12,17.50
2017,07,08,04,13,17.50
2017,07,08,04,14,17.50
2017,07,08,04,15,17.50
2017,07,08,04,16,17.50
2017,07,08,04,17,17.50
2017,07,08,04,18,17.50
2017,07,08,04,19,17.50
2017,07,08,04,20,17.50
2017,07,08,04,21,17.50
2017,07,08,04,22,17.60
2017,07,08,04,23,17.60
2017,07,08,04,24,17.50
2017,07,08,04,25,17.50
2017,07,08,04,26,17.60
2017,07,08,04,27,17.60
2017,07,08,04,28,17.60
2017,07,08,04,29,17.50
2017,07,08,04,30,17.50
2017,07,08,04,31,17.50
2017,07,08,04,32,17.50
2017,07,08,04,33,17.50
2017,07,08,04,34,17.50
2017,07,08,04,35,17.50
2017,07,08,04,36,17.50
2017,07,08,04,37,17.50
2017,07,08,04,38,17.50
2017,07,08,04,39,17.50
2017,07,08,04,40,17.50
2017,07,08,04,41,17.50
2017,07,08,04,42,17.50
2017,07,08,04,43,17.50
2017,07,08,04,44,17.50
2017,07,08,04,45,17.60
2017,07,08,04,46,17.60
2017,07,08,04,47,17.60
2017,07,08,04,48,17.60
2017,07,08,04,49,17.60
2017,07,08,04,50,17.60
2017,07,08,04,51,17.60
2017,07,08,04,52,17.60
2017,07,08,04,53,17.50
2017,07,08,04,54,17.50
2017,07,08,04,55,17.50
2017,07,08,04,56,17.50
2017,07,08,04,57,17.50
2017,07,08,04,58,17.40
2017,07,08,04,59,17.40
2017,07,08,05,00,17.40
2017,07,08,05,01,17.40
2017,07,08,05,02,17.40
2017,07,08,05,03,17.40
2017,07,08,05,04,17.30
2017,07,08,05,05,17.30
2017,07,08,05,06,17.30
2017,07,08,05,07,17.30
2017,07,08,05,08,17.30
2017,07,08,05,09,17.30
2017,07,08,05,10,17.20
2017,07,08,05,11,17.20
2017,07,08,05,12,17.20
2017,07,08,05,13,17.20
2017,07,08,05,14,17.20
2017,07,08,05,15,17.20
2017,07,08,05,16,17.20
2017,07,08,05,17,17.10
2017,07,08,05,18,17.10
2017,07,08,05,19,17.10
2017,07,08,05,20,17.10
2017,07,08,05,21,17.10
2017,07,08,05,22,17.10
2017,07,08,05,23,17.10
2017,07,08,05,24,17.00
2017,07,08,05,25,17.10
2017,07,08,05,26,17.10
2017,07,08,05,27,17.10
2017,07,08,05,28,17.10
2017,07,08,05,29,17.10
2017,07,08,05,30,17.00
2017,07,08,05,31,17.00
2017,07,08,05,32,17.00
2017,07,08,05,33,17.00
2017,07,08,05,34,17.00
2017,07,08,05,35,17.00
2017,07,08,05,36,17.00
2017,07,08,05,37,17.00
2017,07,08,05,38,17.00
2017,07,08,05,39,16.90
2017,07,08,05,40,17.00
2017,07,08,05,41,17.00
2017,07,08,05,42,17.00
2017,07,08,05,43,17.00
2017,07,08,05,44,17.00
2017,07,08,05,45,17.00
2017,07,08,05,46,17.00
2017,07,08,05,47,17.00
2017,07,08,05,48,17.00
2017,07,08,05,49,17.00
2017,07,08,05,50,17.10
2017,07,08,05,51,17.10
2017,07,08,05,52,17.10
2017,07,08,05,53,17.10
2017,07,08,05,54,17.10
2017,07,08,05,55,17.10
2017,07,08,05,56,17.20
2017,07,08,05,57,17.20
2017,07,08,05,58,17.20
2017,07,08,05,59,17.20
2017,07,08,06,00,17.20
2017,07,08,06,01,17.30
2017,07,08,06,02,17.30
2017,07,08,06,03,17.30
2017,07,08,06,04,17.30
2017,07,08,06,05,17.40
2017,07,08,06,06,17.40
2017,07,08,06,07,17.40
2017,07,08,06,08,17.40
2017,07,08,06,09,17.40
2017,07,08,06,10,17.50
2017,07,08,06,11,17.50
2017,07,08,06,12,17.50
2017,07,08,06,13,17.60
2017,07,08,06,14,17.60
2017,07,08,06,15,17.60
2017,07,08,06,16,17.60
2017,07,08,06,17,17.60
2017,07,08,06,18,17.70
2017,07,08,06,19,17.70
2017,07,08,06,20,17.70
2017,07,08,06,21,17.70
2017,07,08,06,22,17.80
2017,07,08,06,23,17.80
2017,07,08,06,24,17.80
2017,07,08,06,25,17.80
2017,07,08,06,26,17.80
2017,07,08,06,27,17.90
2017,07,08,06,28,17.90
2017,07,08,06,29,17.90
2017,07,08,06,30,17.90
2017,07,08,06,31,18.00
2017,07,08,06,32,18.00
2017,07,08,06,33,18.00
2017,07,08,06,34,18.00
2017,07,08,06,35,18.10
2017,07,08,06,36,18.10
2017,07,08,06,37,18.10
2017,07,08,06,38,18.10
2017,07,08,06,39,18.20
2017,07,08,06,40,18.20
2017,07,08,06,41,18.20
2017,07,08,06,42,18.20
2017,07,08,06,43,18.20
2017,07,08,06,44,18.30
2017,07,08,06,45,18.30
2017,07,08,06,46,18.30
2017,07,08,06,47,18.30
2017,07,08,06,48,18.30
2017,07,08,06,49,18.30
2017,07,08,06,50,18.30
2017,07,08,06,51,18.30
2017,07,08,06,52,18.30
2017,07,08,06,53,18.30
2017,07,08,06,54,18.30
2017,07,08,06,55,18.30
2017,07,08,06,56,18.30
2017,07,08,06,57,18.40
2017,07,08,06,58,18.40
2017,07,08,06,59,18.40
2017,07,08,07,00,18.50
2017,07,08,07,01,18.50
2017,07,08,07,02,18.50
2017,07,08,07,03,18.50
2017,07,08,07,04,18.50
2017,07,08,07,05,18.50
2017,07,08,07,06,18.50
2017,07,08,07,07,18.50
2017,07,08,07,08,18.60
2017,07,08,07,09,18.60
2017,07,08,07,10,18.60
2017,07,08,07,11,18.60
2017,07,08,07,12,18.60
2017,07,08,07,13,18.60
2017,07,08,07,14,18.60
2017,07,08,07,15,18.60
2017,07,08,07,16,18.60
2017,07,08,07,17,18.60
2017,07,08,07,18,18.60
2017,07,08,07,19,18.60
2017,07,08,07,20,18.70
2017,07,08,07,21,18.60
2017,07,08,07,22,18.70
2017,07,08,07,23,18.70
2017,07,08,07,24,18.60
2017,07,08,07,25,18.60
2017,07,08,07,26,18.60
2017,07,08,07,27,18.70
2017,07,08,07,28,18.70
2017,07,08,07,29,18.70
2017,07,08,07,30,18.70
2017,07,08,07,31,18.70
2017,07,08,07,32,18.70
2017,07,08,07,33,18.80
2017,07,08,07,34,18.80
2017,07,08,07,35,18.80
2017,07,08,07,36,18.80
2017,07,08,07,37,18.80
2017,07,08,07,38,18.80
2017,07,08,07,39,18.80
2017,07,08,07,40,18.80
2017,07,08,07,41,18.80
2017,07,08,07,42,18.90
2017,07,08,07,43,18.90
2017,07,08,07,44,18.90
2017,07,08,07,45,18.90
2017,07,08,07,46,18.90
2017,07,08,07,47,18.90
2017,07,08,07,48,18.90
2017,07,08,07,49,18.90
2017,07,08,07,50,18.90
2017,07,08,07,51,18.90
2017,07,08,07,52,18.90
2017,07,08,07,53,18.90
2017,07,08,07,54,18.90
2017,07,08,07,55,18.90
2017,07,08,07,56,18.90
2017,07,08,07,57,19.00
2017,07,08,07,58,19.10
2017,07,08,07,59,19.00
2017,07,08,08,00,19.00
2017,07,08,08,01,19.00
2017,07,08,08,02,18.90
2017,07,08,08,03,18.90
2017,07,08,08,04,18.90
2017,07,08,08,05,19.00
2017,07,08,08,06,19.00
2017,07,08,08,07,19.00
2017,07,08,08,08,19.00
2017,07,08,08,09,19.00
2017,07,08,08,10,19.00
2017,07,08,08,11,18.90
2017,07,08,08,12,18.90
2017,07,08,08,13,18.90
2017,07,08,08,14,18.90
2017,07,08,08,15,18.90
2017,07,08,08,16,18.90
2017,07,08,08,17,18.80
2017,07,08,08,18,18.80
2017,07,08,08,19,18.80
2017,07,08,08,20,18.90
2017,07,08,08,21,18.90
2017,07,08,08,22,18.90
2017,07,08,08,23,19.00
2017,07,08,08,24,19.10
2017,07,08,08,25,19.10
2017,07,08,08,26,19.20
2017,07,08,08,27,19.20
2017,07,08,08,28,19.20
2017,07,08,08,29,19.20
2017,07,08,08,30,19.20
2017,07,08,08,31,19.20
2017,07,08,08,32,19.20
2017,07,08,08,33,19.10
2017,07,08,08,34,19.00
2017,07,08,08,35,18.90
2017,07,08,08,36,18.90
2017,07,08,08,37,18.80
2017,07,08,08,38,18.80
2017,07,08,08,39,18.70
2017,07,08,08,40,18.70
2017,07,08,08,41,18.70
2017,07,08,08,42,18.60
2017,07,08,08,43,18.60
2017,07,08,08,44,18.60
2017,07,08,08,45,18.50
2017,07,08,08,46,18.40
2017,07,08,08,47,18.40
2017,07,08,08,48,18.40
2017,07,08,08,49,18.40
2017,07,08,08,50,18.40
2017,07,08,08,51,18.40
2017,07,08,08,52,18.40
2017,07,08,08,53,18.40
2017,07,08,08,54,18.40
2017,07,08,08,55,18.40
2017,07,08,08,56,18.50
2017,07,08,08,57,18.50
2017,07,08,08,58,18.50
2017,07,08,08,59,18.40
2017,07,08,09,00,18.40
2017,07,08,09,01,18.50
2017,07,08,09,02,18.60
2017,07,08,09,03,18.60
2017,07,08,09,04,18.60
2017,07,08,09,05,18.60
2017,07,08,09,06,18.70
2017,07,08,09,07,18.70
2017,07,08,09,08,18.70
2017,07,08,09,09,18.70
2017,07,08,09,10,18.70
2017,07,08,09,11,18.60
2017,07,08,09,12,18.60
2017,07,08,09,13,18.50
2017,07,08,09,14,18.50
2017,07,08,09,15,18.40
2017,07,08,09,16,18.40
2017,07,08,09,17,18.30
2017,07,08,09,18,18.30
2017,07,08,09,19,18.30
2017,07,08,09,20,18.40
2017,07,08,09,21,18.40
2017,07,08,09,22,18.50
2017,07,08,09,23,18.50
2017,07,08,09,24,18.60
2017,07,08,09,25,18.70
2017,07,08,09,26,18.70
2017,07,08,09,27,18.70
2017,07,08,09,28,18.70
2017,07,08,09,29,18.70
2017,07,08,09,30,18.60
2017,07,08,09,31,18.60
2017,07,08,09,32,18.60
2017,07,08,09,33,18.50
2017,07,08,09,34,18.60
2017,07,08,09,35,18.60
2017,07,08,09,36,18.70
2017,07,08,09,37,18.70
2017,07,08,09,38,18.70
2017,07,08,09,39,18.70
2017,07,08,09,40,18.70
2017,07,08,09,41,18.70
2017,07,08,09,42,18.80
2017,07,08,09,43,18.80
2017,07,08,09,44,18.90
2017,07,08,09,45,18.90
2017,07,08,09,46,18.90
2017,07,08,09,47,18.90
2017,07,08,09,48,18.90
2017,07,08,09,49,18.90
2017,07,08,09,50,19.00
2017,07,08,09,51,19.00
2017,07,08,09,52,19.00
2017,07,08,09,53,19.10
2017,07,08,09,54,19.10
2017,07,08,09,55,19.10
2017,07,08,09,56,19.00
2017,07,08,09,57,18.90
2017,07,08,09,58,18.90
2017,07,08,09,59,18.80
2017,07,08,10,00,18.80
2017,07,08,10,01,18.70
2017,07,08,10,02,18.70
2017,07,08,10,03,18.70
2017,07,08,10,04,18.70
2017,07,08,10,05,18.70
2017,07,08,10,06,18.80
2017,07,08,10,07,18.80
2017,07,08,10,08,18.80
2017,07,08,10,09,18.80
2017,07,08,10,10,18.90
2017,07,08,10,11,19.00
2017,07,08,10,12,19.10
2017,07,08,10,13,19.10
2017,07,08,10,14,19.00
2017,07,08,10,15,18.90
2017,07,08,10,16,18.90
2017,07,08,10,17,18.80
2017,07,08,10,18,18.80
2017,07,08,10,19,18.70
2017,07,08,10,20,18.70
2017,07,08,10,21,18.80
2017,07,08,10,22,18.70
2017,07,08,10,23,18.70
2017,07,08,10,24,18.70
2017,07,08,10,25,18.70
2017,07,08,10,26,18.60
2017,07,08,10,27,18.60
2017,07,08,10,28,18.60
2017,07,08,10,29,18.50
2017,07,08,10,30,18.50
2017,07,08,10,31,18.50
2017,07,08,10,32,18.60
2017,07,08,10,33,18.50
2017,07,08,10,34,18.50
2017,07,08,10,35,18.50
2017,07,08,10,36,18.60
2017,07,08,10,37,18.70
2017,07,08,10,38,18.70
2017,07,08,10,39,18.70
2017,07,08,10,40,18.60
2017,07,08,10,41,18.60
2017,07,08,10,42,18.60
2017,07,08,10,43,18.60
2017,07,08,10,44,18.60
2017,07,08,10,45,18.60
2017,07,08,10,46,18.60
2017,07,08,10,47,18.60
2017,07,08,10,48,18.60
2017,07,08,10,49,18.60
2017,07,08,10,50,18.60
2017,07,08,10,51,18.70
2017,07,08,10,52,18.70
2017,07,08,10,53,18.80
2017,07,08,10,54,18.80
2017,07,08,10,55,18.90
2017,07,08,10,56,18.90
2017,07,08,10,57,19.00
2017,07,08,10,58,19.10
2017,07,08,10,59,19.10
2017,07,08,11,00,19.10
2017,07,08,11,01,19.20
2017,07,08,11,02,19.20
2017,07,08,11,03,19.20
2017,07,08,11,04,19.30
2017,07,08,11,05,19.40
2017,07,08,11,06,19.50
2017,07,08,11,07,19.60
2017,07,08,11,08,19.70
2017,07,08,11,09,19.80
2017,07,08,11,10,19.80
2017,07,08,11,11,19.80
2017,07,08,11,12,19.60
2017,07,08,11,13,19.50
2017,07,08,11,14,19.40
2017,07,08,11,15,19.40
2017,07,08,11,16,19.30
2017,07,08,11,17,19.30
2017,07,08,11,18,19.20
2017,07,08,11,19,19.30
2017,07,08,11,20,19.30
2017,07,08,11,21,19.40
2017,07,08,11,22,19.40
2017,07,08,11,23,19.50
2017,07,08,11,24,19.50
2017,07,08,11,25,19.50
2017,07,08,11,26,19.40
2017,07,08,11,27,19.50
2017,07,08,11,28,19.50
2017,07,08,11,29,19.50
2017,07,08,11,30,19.40
2017,07,08,11,31,19.40
2017,07,08,11,32,19.30
2017,07,08,11,33,19.30
2017,07,08,11,34,19.30
2017,07,08,11,35,19.20
2017,07,08,11,36,19.20
2017,07,08,11,37,19.30
2017,07,08,11,38,19.20
2017,07,08,11,39,19.20
2017,07,08,11,40,19.10
2017,07,08,11,41,19.10
2017,07,08,11,42,19.10
2017,07,08,11,43,19.10
2017,07,08,11,44,19.10
2017,07,08,11,45,19.20
2017,07,08,11,46,19.20
2017,07,08,11,47,19.20
2017,07,08,11,48,19.30
2017,07,08,11,49,19.30
2017,07,08,11,50,19.30
2017,07,08,11,51,19.20
2017,07,08,11,52,19.20
2017,07,08,11,53,19.20
2017,07,08,11,54,19.20
2017,07,08,11,55,19.20
2017,07,08,11,56,19.20
2017,07,08,11,57,19.20
2017,07,08,11,58,19.20
2017,07,08,11,59,19.20
2017,07,08,12,00,19.20
2017,07,08,12,01,19.20
2017,07,08,12,02,19.20
2017,07,08,12,03,19.20
2017,07,08,12,04,19.20
2017,07,08,12,05,19.10
2017,07,08,12,06,19.10
2017,07,08,12,07,19.10
2017,07,08,12,08,19.10
2017,07,08,12,09,19.10
2017,07,08,12,10,19.10
2017,07,08,12,11,19.20
2017,07,08,12,12,19.20
2017,07,08,12,13,19.20
2017,07,08,12,14,19.30
2017,07,08,12,15,19.30
2017,07,08,12,16,19.40
2017,07,08,12,17,19.40
2017,07,08,12,18,19.50
2017,07,08,12,19,19.50
2017,07,08,12,20,19.60
2017,07,08,12,21,19.70
2017,07,08,12,22,19.70
2017,07,08,12,23,19.80
2017,07,08,12,24,19.80
2017,07,08,12,25,19.90
2017,07,08,12,26,19.90
2017,07,08,12,27,19.90
2017,07,08,12,28,20.00
2017,07,08,12,29,20.10
2017,07,08,12,30,20.10
2017,07,08,12,31,20.10
2017,07,08,12,32,20.10
2017,07,08,12,33,20.20
2017,07,08,12,34,20.10
2017,07,08,12,35,20.10
2017,07,08,12,36,20.00
2017,07,08,12,37,20.00
2017,07,08,12,38,20.00
2017,07,08,12,39,20.00
2017,07,08,12,40,19.90
2017,07,08,12,41,20.00
2017,07,08,12,42,20.00
2017,07,08,12,43,20.00
2017,07,08,12,44,19.90
2017,07,08,12,45,20.00
2017,07,08,12,46,20.00
2017,07,08,12,47,20.00
2017,07,08,12,48,20.00
2017,07,08,12,49,20.10
2017,07,08,12,50,20.20
2017,07,08,12,51,20.30
2017,07,08,12,52,20.30
2017,07,08,12,53,20.30
2017,07,08,12,54,20.20
2017,07,08,12,55,20.10
2017,07,08,12,56,20.00
2017,07,08,12,57,20.00
2017,07,08,12,58,20.10
2017,07,08,12,59,20.20
2017,07,08,13,00,20.30
2017,07,08,13,01,20.40
2017,07,08,13,02,20.30
2017,07,08,13,03,20.30
2017,07,08,13,04,20.20
2017,07,08,13,05,20.20
2017,07,08,13,06,20.20
2017,07,08,13,07,20.20
2017,07,08,13,08,20.20
2017,07,08,13,09,20.10
2017,07,08,13,10,20.10
2017,07,08,13,11,20.00
2017,07,08,13,12,20.00
2017,07,08,13,13,20.10
2017,07,08,13,14,20.10
2017,07,08,13,15,20.20
2017,07,08,13,16,20.20
2017,07,08,13,17,20.30
2017,07,08,13,18,20.40
2017,07,08,13,19,20.50
2017,07,08,13,20,20.50
2017,07,08,13,21,20.60
2017,07,08,13,22,20.60
2017,07,08,13,23,20.50
2017,07,08,13,24,20.40
2017,07,08,13,25,20.30
2017,07,08,13,26,20.30
2017,07,08,13,27,20.30
2017,07,08,13,28,20.30
2017,07,08,13,29,20.40
2017,07,08,13,30,20.40
2017,07,08,13,31,20.30
2017,07,08,13,32,20.30
2017,07,08,13,33,20.20
2017,07,08,13,34,20.20
2017,07,08,13,35,20.20
2017,07,08,13,36,20.10
2017,07,08,13,37,20.10
2017,07,08,13,38,20.20
2017,07,08,13,39,20.20
2017,07,08,13,40,20.20
2017,07,08,13,41,20.20
2017,07,08,13,42,20.20
2017,07,08,13,43,20.20
2017,07,08,13,44,20.10
2017,07,08,13,45,20.20
2017,07,08,13,46,20.20
2017,07,08,13,47,20.20
2017,07,08,13,48,20.20
2017,07,08,13,49,20.20
2017,07,08,13,50,20.10
2017,07,08,13,51,20.10
2017,07,08,13,52,20.20
2017,07,08,13,53,20.20
2017,07,08,13,54,20.20
2017,07,08,13,55,20.30
2017,07,08,13,56,20.40
2017,07,08,13,57,20.40
2017,07,08,13,58,20.50
2017,07,08,13,59,20.70
2017,07,08,14,00,20.80
2017,07,08,14,01,20.90
2017,07,08,14,02,20.90
2017,07,08,14,03,20.90
2017,07,08,14,04,20.90
2017,07,08,14,05,20.90
2017,07,08,14,06,21.00
2017,07,08,14,07,21.00
2017,07,08,14,08,21.10
2017,07,08,14,09,21.10
2017,07,08,14,10,21.10
2017,07,08,14,11,21.10
2017,07,08,14,12,21.00
2017,07,08,14,13,21.00
2017,07,08,14,14,21.00
2017,07,08,14,15,21.00
2017,07,08,14,16,21.10
2017,07,08,14,17,21.20
2017,07,08,14,18,21.20
2017,07,08,14,19,21.20
2017,07,08,14,20,21.30
2017,07,08,14,21,21.30
2017,07,08,14,22,21.30
2017,07,08,14,23,21.20
2017,07,08,14,24,21.30
2017,07,08,14,25,21.30
2017,07,08,14,26,21.30
2017,07,08,14,27,21.30
2017,07,08,14,28,21.40
2017,07,08,14,29,21.40
2017,07,08,14,30,21.50
2017,07,08,14,31,21.60
2017,07,08,14,32,21.70
2017,07,08,14,33,21.80
2017,07,08,14,34,21.80
2017,07,08,14,35,21.80
2017,07,08,14,36,21.70
2017,07,08,14,37,21.70
2017,07,08,14,38,21.60
2017,07,08,14,39,21.60
2017,07,08,14,40,21.70
2017,07,08,14,41,21.80
2017,07,08,14,42,21.80
2017,07,08,14,43,21.90
2017,07,08,14,44,22.00
2017,07,08,14,45,22.10
2017,07,08,14,46,22.10
2017,07,08,14,47,22.10
2017,07,08,14,48,22.20
2017,07,08,14,49,22.20
2017,07,08,14,50,22.20
2017,07,08,14,51,22.20
2017,07,08,14,52,22.20
2017,07,08,14,53,22.20
2017,07,08,14,54,22.20
2017,07,08,14,55,22.20
2017,07,08,14,56,22.30
2017,07,08,14,57,22.20
2017,07,08,14,58,22.10
2017,07,08,14,59,21.90
2017,07,08,15,00,21.80
2017,07,08,15,01,21.80
2017,07,08,15,02,21.70
2017,07,08,15,03,21.60
2017,07,08,15,04,21.50
2017,07,08,15,05,21.50
2017,07,08,15,06,21.50
2017,07,08,15,07,21.40
2017,07,08,15,08,21.40
2017,07,08,15,09,21.40
2017,07,08,15,10,21.50
2017,07,08,15,11,21.50
2017,07,08,15,12,21.60
2017,07,08,15,13,21.60
2017,07,08,15,14,21.70
2017,07,08,15,15,21.80
2017,07,08,15,16,21.80
2017,07,08,15,17,21.80
2017,07,08,15,18,21.90
2017,07,08,15,19,21.90
2017,07,08,15,20,21.90
2017,07,08,15,21,22.00
2017,07,08,15,22,22.00
2017,07,08,15,23,22.10
2017,07,08,15,24,22.10
2017,07,08,15,25,22.10
2017,07,08,15,26,22.20
2017,07,08,15,27,22.20
2017,07,08,15,28,22.30
2017,07,08,15,29,22.40
2017,07,08,15,30,22.50
2017,07,08,15,31,22.50
2017,07,08,15,32,22.60
2017,07,08,15,33,22.60
2017,07,08,15,34,22.70
2017,07,08,15,35,22.70
2017,07,08,15,36,22.80
2017,07,08,15,37,22.80
2017,07,08,15,38,22.80
2017,07,08,15,39,22.90
2017,07,08,15,40,22.90
2017,07,08,15,41,22.90
2017,07,08,15,42,22.90
2017,07,08,15,43,22.90
2017,07,08,15,44,23.00
2017,07,08,15,45,23.00
2017,07,08,15,46,23.10
2017,07,08,15,47,23.10
2017,07,08,15,48,23.20
2017,07,08,15,49,23.20
2017,07,08,15,50,23.20
2017,07,08,15,51,23.20
2017,07,08,15,52,23.20
2017,07,08,15,53,23.20
2017,07,08,15,54,23.20
2017,07,08,15,55,23.20
2017,07,08,15,56,23.20
2017,07,08,15,57,23.20
2017,07,08,15,58,23.20
2017,07,08,15,59,23.10
2017,07,08,16,00,23.10
2017,07,08,16,01,23.10
2017,07,08,16,02,23.10
2017,07,08,16,03,23.10
2017,07,08,16,04,23.20
2017,07,08,16,05,23.20
2017,07,08,16,06,23.20
2017,07,08,16,07,23.30
2017,07,08,16,08,23.40
2017,07,08,16,09,23.40
2017,07,08,16,10,23.40
2017,07,08,16,11,23.50
2017,07,08,16,12,23.60
2017,07,08,16,13,23.60
2017,07,08,16,14,23.70
2017,07,08,16,15,23.70
2017,07,08,16,16,23.70
2017,07,08,16,17,23.70
2017,07,08,16,18,23.70
2017,07,08,16,19,23.70
2017,07,08,16,20,23.70
2017,07,08,16,21,23.70
2017,07,08,16,22,23.70
2017,07,08,16,23,23.80
2017,07,08,16,24,23.80
2017,07,08,16,25,23.80
2017,07,08,16,26,23.90
2017,07,08,16,27,24.00
2017,07,08,16,28,24.00
2017,07,08,16,29,24.10
2017,07,08,16,30,24.20
2017,07,08,16,31,24.20
2017,07,08,16,32,24.30
2017,07,08,16,33,24.30
2017,07,08,16,34,24.30
2017,07,08,16,35,24.20
2017,07,08,16,36,24.10
2017,07,08,16,37,24.00
2017,07,08,16,38,23.90
2017,07,08,16,39,23.80
2017,07,08,16,40,23.70
2017,07,08,16,41,23.60
2017,07,08,16,42,23.50
2017,07,08,16,43,23.40
2017,07,08,16,44,23.30
2017,07,08,16,45,23.30
2017,07,08,16,46,23.40
2017,07,08,16,47,23.40
2017,07,08,16,48,23.40
2017,07,08,16,49,23.40
2017,07,08,16,50,23.50
2017,07,08,16,51,23.60
2017,07,08,16,52,23.70
2017,07,08,16,53,23.80
2017,07,08,16,54,23.90
2017,07,08,16,55,24.00
2017,07,08,16,56,24.00
2017,07,08,16,57,24.00
2017,07,08,16,58,24.00
2017,07,08,16,59,24.10
2017,07,08,17,00,24.10
2017,07,08,17,01,24.10
2017,07,08,17,02,24.10
2017,07,08,17,03,24.10
2017,07,08,17,04,24.10
2017,07,08,17,05,24.10
2017,07,08,17,06,24.00
2017,07,08,17,07,23.90
2017,07,08,17,08,23.80
2017,07,08,17,09,23.70
2017,07,08,17,10,23.60
2017,07,08,17,11,23.50
2017,07,08,17,12,23.50
2017,07,08,17,13,23.50
2017,07,08,17,14,23.60
2017,07,08,17,15,23.60
2017,07,08,17,16,23.60
2017,07,08,17,17,23.60
2017,07,08,17,18,23.60
2017,07,08,17,19,23.70